Total_Precipitation_Accumulation
0.00 0.01 0.02 0.10 0.33 0.82 0.54 0.08 0.44 0.37 0.21 0.07 0.01 0.05 0.05 0.06 0.06 0.15 0.00 0.00 0.00 0.00 0.01 0.02 0.02 0.00 0.01 0.01 0.01 0.02 0.02 0.02 0.02 0.00 0.01 0.02 0.02 0.01 0.02 0.02 0.01 0.01 0.02 0.02 0.07 0.16 0.12 0.12 0.11
0.00 0.01 0.03 0.15 0.42 0.38 0.69 0.06 0.25 0.30 0.14 0.06 0.05 0.06 0.61 0.02 0.00 0.00 0.00 0.00 0.00 0.00 0.01 0.00 0.01 0.01 0.01 0.01 0.01 0.01 0.01 0.00 0.00 0.00 0.02 0.02 0.02 0.02 0.03 0.03 0.01 0.01 0.11 0.09 0.10 0.26 0.25 0.22 0.21
0.01 0.01 0.05 0.53 0.35 0.37 0.35 0.11 0.13 0.25 0.15 0.09 0.06 0.03 0.15 0.02 0.00 0.00 0.00 0.01 0.00 0.00 0.00 0.00 0.03 0.01 0.01 0.00 0.00 0.01 0.01 0.00 0.00 0.01 0.02 0.02 0.02 0.07 0.08 0.02 0.02 0.10 0.13 0.02 0.09 0.35 0.59 0.60 0.30
0.00 0.08 0.27 0.18 0.21 0.16 0.20 0.16 0.13 0.23 0.07 0.06 0.04 0.01 0.00 0.00 0.00 0.00 0.00 0.01 0.00 0.00 0.00 0.01 0.03 0.01 0.01 0.01 0.01 0.00 0.00 0.00 0.01 0.01 0.02 0.02 0.06 0.10 0.07 0.01 0.02 0.02 0.02 0.01 0.14 0.19 0.28 0.41 0.35
0.02 0.48 0.50 0.20 0.12 0.07 0.06 0.13 0.07 0.22 0.15 0.01 0.00 0.00 0.00 0.00 0.01 0.00 0.01 0.00 0.00 0.00 0.00 0.01 0.02 0.01 0.01 0.01 0.00 0.00 0.00 0.01 0.01 0.02 0.02 0.03 0.05 0.06 0.05 0.03 0.02 0.00 0.00 0.03 0.09 0.09 0.13 0.13 0.17
0.02 0.27 0.27 0.10 0.15 0.09 0.02 0.02 0.03 0.20 0.08 0.01 0.00 0.00 0.02 0.02 0.00 0.00 0.00 0.00 0.00 0.00 0.00 0.00 0.02 0.02 0.01 0.01 0.01 0.00 0.01 0.02 0.03 0.03 0.03 0.03 0.05 0.05 0.07 0.09 0.03 0.01 0.00 0.03 0.04 0.08 0.14 0.06 0.04
0.33 0.15 0.04 0.02 0.23 0.16 0.07 0.09 0.10 0.02 0.02 0.04 0.00 0.02 0.03 0.01 0.00 0.00 0.00 0.00 0.00 0.00 0.00 0.00 0.01 0.02 0.02 0.02 0.01 0.01 0.01 0.01 0.00 0.00 0.02 0.08 0.08 0.09 0.03 0.03 0.02 0.01 0.00 0.02 0.10 0.25 0.31 0.26 0.08
0.37 0.23 0.05 0.01 0.09 0.09 0.04 0.01 0.01 0.01 0.01 0.02 0.04 0.04 0.00 0.00 0.00 0.00 0.01 0.02 0.00 0.00 0.00 0.00 0.00 0.01 0.02 0.01 0.01 0.02 0.04 0.02 0.07 0.14 0.26 0.22 0.33 0.34 0.26 0.21 0.24 0.21 0.07 0.01 0.04 0.24 0.38 0.20 0.13
0.07 0.09 0.04 0.02 0.01 0.03 0.04 0.00 0.00 0.01 0.00 0.01 0.03 0.00 0.00 0.00 0.00 0.01 0.01 0.03 0.01 0.00 0.00 0.00 0.00 0.01 0.02 0.01 0.02 0.02 0.05 0.03 0.11 0.29 0.08 0.11 0.20 0.12 0.21 0.21 0.18 0.29 0.12 0.01 0.00 0.00 0.21 0.24 0.10
0.05 0.09 0.05 0.00 0.00 0.00 0.00 0.00 0.00 0.01 0.00 0.00 0.01 0.00 0.00 0.00 0.00 0.00 0.00 0.02 0.00 0.00 0.00 0.00 0.00 0.00 0.02 0.01 0.05 0.03 0.05 0.08 0.08 0.09 0.12 0.06 0.02 0.01 0.08 0.20 0.23 0.27 0.24 0.17 0.17 0.12 0.24 0.49 0.49
0.01 0.10 0.00 0.00 0.00 0.00 0.00 0.00 0.00 0.00 0.01 0.00 0.00 0.00 0.00 0.00 0.00 0.00 0.05 0.03 0.01 0.00 0.00 0.00 0.00 0.00 0.00 0.00 0.01 0.00 0.04 0.17 0.11 0.11 0.01 0.00 0.00 0.00 0.00 0.02 0.02 0.01 0.03 0.04 0.14 0.19 0.30 0.68 0.80
0.00 0.00 0.00 0.00 0.00 0.00 0.00 0.00 0.00 0.00 0.00 0.00 0.00 0.04 0.01 0.01 0.04 0.02 0.03 0.08 0.08 0.01 0.00 0.00 0.00 0.00 0.00 0.01 0.00 0.01 0.06 0.11 0.06 0.14 0.10 0.05 0.00 0.00 0.00 0.00 0.00 0.00 0.00 0.07 0.18 0.21 0.23 0.64 0.57
0.00 0.00 0.00 0.00 0.00 0.00 0.00 0.00 0.00 0.01 0.02 0.01 0.01 0.03 0.02 0.05 0.14 0.25 0.28 0.45 0.23 0.10 0.00 0.00 0.00 0.00 0.00 0.01 0.00 0.04 0.09 0.06 0.02 0.16 0.16 0.16 0.07 0.05 0.03 0.07 0.05 0.03 0.03 0.04 0.11 0.33 0.54 0.46 0.40
0.00 0.00 0.00 0.00 0.00 0.00 0.00 0.01 0.01 0.06 0.06 0.10 0.05 0.07 0.13 0.11 0.09 0.26 0.47 0.53 0.34 0.24 0.16 0.02 0.01 0.01 0.00 0.00 0.00 0.01 0.03 0.08 0.18 0.18 0.24 0.33 0.23 0.24 0.28 0.25 0.43 0.19 0.04 0.00 0.11 0.63 0.68 0.47 0.46
0.00 0.00 0.00 0.00 0.00 0.00 0.00 0.00 0.01 0.09 0.03 0.12 0.10 0.09 0.17 0.19 0.12 0.31 0.34 0.26 0.40 0.34 0.42 0.21 0.03 0.00 0.00 0.00 0.00 0.00 0.05 0.15 0.23 0.72 0.47 0.41 0.38 0.54 0.44 0.47 0.50 0.27 0.03 0.01 0.08 0.46 0.79 0.56 0.41
0.00 0.00 0.00 0.00 0.00 0.00 0.00 0.07 0.35 0.07 0.02 0.13 0.16 0.11 0.09 0.12 0.12 0.09 0.07 0.22 0.33 0.30 0.31 0.42 0.21 0.15 0.07 0.00 0.03 0.13 0.18 0.11 0.39 0.58 0.41 0.48 0.44 0.59 0.61 0.27 0.40 0.20 0.09 0.10 0.06 0.47 0.76 0.60 0.51
0.00 0.00 0.00 0.00 0.00 0.00 0.00 0.00 0.02 0.00 0.01 0.31 0.55 0.11 0.10 0.07 0.14 0.25 0.15 0.34 0.20 0.56 0.45 0.91 0.89 0.64 0.38 0.12 0.14 0.27 0.19 0.16 0.37 0.47 0.47 0.97 0.52 0.62 0.50 0.28 0.47 0.18 0.05 0.05 0.09 0.58 0.70 0.56 0.30
0.00 0.00 0.00 0.00 0.00 0.00 0.00 0.00 0.00 0.01 0.03 0.03 0.08 0.08 0.09 0.06 0.05 0.21 0.16 0.29 0.23 0.82 0.79 1.03 1.58 1.18 0.41 0.23 0.16 0.17 0.10 0.13 0.12 0.44 0.80 0.94 0.46 0.49 0.39 0.44 0.49 0.30 0.18 0.04 0.27 0.47 0.41 0.25 0.34
0.00 0.00 0.00 0.00 0.00 0.00 0.00 0.00 0.00 0.01 0.07 0.02 0.04 0.11 0.16 0.06 0.04 0.08 0.08 0.11 0.25 0.55 0.70 0.85 1.89 2.36 1.13 0.18 0.14 0.06 0.15 0.21 0.27 0.44 1.08 0.86 0.50 0.35 0.44 0.40 0.40 0.61 0.21 0.15 0.16 0.30 0.51 0.17 0.34
0.00 0.00 0.00 0.00 0.00 0.00 0.00 0.00 0.00 0.00 0.02 0.05 0.03 0.05 0.03 0.06 0.07 0.30 0.28 0.22 0.09 0.21 0.53 0.62 0.52 0.72 0.67 0.23 0.17 0.25 0.45 0.31 0.41 0.70 1.20 0.93 0.28 0.41 0.52 0.44 0.61 0.97 0.57 0.21 0.13 0.16 0.43 0.28 0.09
0.00 0.00 0.00 0.00 0.00 0.00 0.00 0.03 0.09 0.03 0.05 0.02 0.01 0.01 0.08 0.47 0.92 0.46 0.58 0.24 0.01 0.09 0.20 0.34 0.33 0.54 0.31 0.17 0.32 0.44 0.50 0.48 0.85 1.40 0.83 0.62 0.27 0.27 0.32 0.23 0.54 0.58 0.39 0.27 0.23 0.12 0.33 0.37 0.42
0.00 0.00 0.00 0.00 0.00 0.00 0.00 0.05 0.16 0.12 0.09 0.02 0.02 0.03 0.09 0.20 0.39 0.36 0.05 0.02 0.01 0.06 0.14 0.18 0.21 0.28 0.11 0.09 0.20 0.34 0.49 0.62 0.75 0.73 0.62 0.48 0.25 0.09 0.18 0.13 0.47 0.44 0.32 0.25 0.15 0.05 0.13 0.25 0.55
0.00 0.00 0.00 0.00 0.00 0.00 0.00 0.01 0.04 0.05 0.06 0.05 0.10 0.11 0.28 0.46 0.11 0.05 0.04 0.03 0.02 0.02 0.06 0.21 0.22 0.16 0.08 0.07 0.15 0.39 0.47 0.83 0.75 0.58 0.41 0.31 0.17 0.02 0.09 0.11 0.32 0.35 0.57 0.26 0.10 0.05 0.05 0.13 0.43
0.00 0.00 0.00 0.00 0.00 0.00 0.00 0.00 0.01 0.00 0.01 0.06 0.05 0.01 0.01 0.06 0.07 0.10 0.05 0.02 0.02 0.02 0.02 0.06 0.09 0.08 0.05 0.05 0.05 0.18 0.47 0.85 0.59 0.25 0.09 0.12 0.12 0.04 0.23 0.37 0.44 0.42 0.60 0.42 0.13 0.11 0.07 0.01 0.08
0.00 0.00 0.00 0.00 0.00 0.01 0.02 0.04 0.03 0.00 0.00 0.01 0.00 0.01 0.00 0.01 0.05 0.03 0.00 0.00 0.03 0.00 0.00 0.00 0.02 0.01 0.00 0.01 0.03 0.11 0.44 0.65 0.36 0.21 0.17 0.39 0.27 0.39 0.41 0.31 0.39 0.37 0.47 0.32 0.27 0.09 0.07 0.08 0.25
0.00 0.00 0.00 0.00 0.00 0.06 0.03 0.01 0.01 0.00 0.01 0.04 0.02 0.01 0.00 0.00 0.01 0.00 0.00 0.00 0.01 0.01 0.02 0.00 0.00 0.00 0.00 0.01 0.13 0.27 0.36 0.58 0.40 0.52 0.69 0.91 0.57 0.37 0.41 0.30 0.35 0.39 0.36 0.30 0.25 0.19 0.07 0.08 0.09
0.00 0.00 0.00 0.00 0.00 0.00 0.00 0.01 0.01 0.00 0.00 0.02 0.03 0.01 0.00 0.00 0.00 0.00 0.00 0.01 0.03 0.04 0.04 0.00 0.02 0.11 0.11 0.12 0.32 0.22 0.40 0.83 0.85 1.34 0.94 0.93 0.54 0.41 0.37 0.57 0.58 0.73 0.76 0.47 0.42 0.27 0.11 0.16 0.10
0.00 0.00 0.00 0.00 0.00 0.00 0.00 0.00 0.00 0.00 0.01 0.02 0.05 0.01 0.00 0.00 0.00 0.00 0.01 0.01 0.01 0.02 0.03 0.01 0.12 0.04 0.00 0.02 0.07 0.18 0.69 0.76 0.79 0.90 0.43 0.37 0.40 0.33 0.65 0.44 0.47 0.69 0.62 0.51 0.48 0.30 0.28 0.16 0.09
0.00 0.00 0.00 0.00 0.00 0.00 0.01 0.01 0.00 0.00 0.01 0.03 0.05 0.03 0.00 0.00 0.00 0.00 0.00 0.00 0.01 0.00 0.05 0.13 0.13 0.08 0.01 0.02 0.03 0.23 0.39 0.44 0.36 0.26 0.26 0.20 0.20 0.23 0.20 0.21 0.30 0.50 0.62 0.47 0.38 0.38 0.34 0.31 0.26
0.00 0.00 0.00 0.00 0.00 0.00 0.00 0.00 0.00 0.00 0.01 0.01 0.01 0.01 0.01 0.01 0.00 0.00 0.00 0.00 0.00 0.01 0.03 0.24 0.10 0.02 0.02 0.00 0.02 0.09 0.20 0.26 0.15 0.13 0.04 0.02 0.05 0.04 0.05 0.08 0.16 0.32 0.36 0.42 0.53 0.60 0.51 0.36 0.47